Regional Weather Roundup
Issued by NWS Northern Indiana

Home | Current Version | Previous Version | Text Only | Print | Product List | Glossary On
Versions: 1 2 3 4 5 6 7 8 9 10 11 12 13 14 15 16 17 18 19 20 21 22 23 24 25 26 27 28 29 30 31 32 33 34 35 36 37 38 39 40 41 42 43 44 45 46 47 48 49 50
000
ASUS43 KIWX 272300
RWRIWX

KIWX WEATHER ROUNDUP
NATIONAL WEATHER SERVICE NORTHERN INDIANA
700 PM EDT WED MAY 27 2015

NOTE: "FAIR" INDICATES FEW OR NO CLOUDS BELOW 12,000 FEET WITH NO
SIGNIFICANT WEATHER AND/OR OBSTRUCTIONS TO VISIBILITY.

* THESE STATIONS ARE NOT UNDER NWS QUALITY CONTROL. THEY ALSO MAY NOT
  REPORT WEATHER SUCH AS PRECIPITATION OR FOG.

INZ001>027-280000-
NORTHERN INDIANA

CITY           SKY/WX    TMP DP  RH WIND       PRES   REMARKS
GARY*          PTSUNNY   72  55  56 N9        30.05R
SOUTH BEND     PTSUNNY   71  56  58 NW10      30.04R
ELKHART*       PTSUNNY   70  57  64 NW8G16    30.04R
GOSHEN         CLOUDY    70  58  65 NW12      30.02R
ANGOLA*        PTSUNNY   72  64  78 NW9       30.02R
FORT WAYNE     CLOUDY    71  64  78 SW6       30.03S
PERU/GRISSOM   PTSUNNY   73  65  76 SW8       30.02F

$$
INZ028>050-280000-
CENTRAL INDIANA

CITY           SKY/WX    TMP DP  RH WIND       PRES   REMARKS
LAFAYETTE      SUNNY     77  58  51 W14       30.02F
KOKOMO*        PTSUNNY   73  64  73 W7        30.04F
MUNCIE*        CLOUDY    78  62  57 SW9       30.04S
INDIANAPOLIS   CLOUDY    78  58  49 SW14      30.03S

$$
MIZ043>046-050>051-056>058-064>065-071>073-077>080-280000-
SOUTHWEST LOWER MICHIGAN

CITY           SKY/WX    TMP DP  RH WIND       PRES   REMARKS
BATTLE CREEK   PTSUNNY   71  57  61 W10G20    30.02R
BENTON HARBOR  MOSUNNY   65  58  78 NW10      30.03R
COLDWATER*     CLOUDY    71  58  64 NW9       30.02R
HILLSDALE*     PTSUNNY   72  62  71 W7        30.02S
HOLLAND        MOSUNNY   62  57  83 NW13G24   30.04R
GRAND RAPIDS   MOSUNNY   69  57  65 W14       30.00R
KALAMAZOO      PTSUNNY   72  58  61 W10       30.02R
STURGIS*       MOSUNNY   72  59  64 NW8       30.02R
THREE RIVERS*  PTSUNNY   69  57  65 W9        30.03R

$$
OHZ001>008-015>018-024>025-280000-
NORTHWEST OHIO

CITY           SKY/WX    TMP DP  RH WIND       PRES   REMARKS
DEFIANCE       CLOUDY    72  63  73 NW3       30.01S
FINDLAY        CLOUDY    68  63  84 NW7       30.02F
TOLEDO EXPRESS PTSUNNY   69  64  84 SW5       30.01S
TOLEDO METCALF CLOUDY    69  62  78 SW7       30.02S
LIMA           CLOUDY    71  64  78 W6        30.03S

$$
AND FOR LAKE MICHIGAN COASTAL AND OPEN LAKE BUOY OBSERVATIONS

STATION/POSITION TEMP    WIND        PRES    VSBY  WAVE
                 AIR SEA DIR/SP/G                  HT/PER
                 (F)     (DEG/KT/KT) (MB)    (MI)  (FT/S)
CALUMET HARBOR    73     280/  9/ 17   N/A
MICHIGAN CITY     60     340/ 10/ 12   N/A
BURNS HARBOR      63      60/  5/ 10 1017.6S
SAINT JOSEPH      60     190/  3/  4 1017.3F
SOUTH LAKE BUOY   47 38  280/  8/  8 1017.1R         1
4 MI NW BRIDGMAN  57 56  340/  4/  4   N/A           1/ 3
MICHIGAN CITY     55 53   10/  4/  6   N/A           1/ 3

$$
&&



USA.gov is the U.S. government's official web portal to all federal, state and local government web resources and services.